• In Romania
  • List of Countries
  • For 7 days
  • Water Temperature
  • Satellite Maps
  • Weather Map
  • Weather Widgets
  • user-avatar
    Login

    Hourly Weather La Rioja

    Today, 21 January, Sunday

    Time Temperature Precipitation Wind Pressure Humidity
    00:00 +27°C° 0.7 mm 2 mps 713 mmHg 61%
    01:00 +26°C° 0.7 mm 2 mps 713 mmHg 63%
    02:00 +26°C° 0 mm 1 mps 712 mmHg 66%
    03:00 +25°C° 0.5 mm 1 mps 712 mmHg 68%
    04:00 +25°C° 0.5 mm 1 mps 712 mmHg 69%
    05:00 +25°C° 0.5 mm 1 mps 712 mmHg 71%
    06:00 +25°C° 0.2 mm 1 mps 712 mmHg 67%
    07:00 +26°C° 0.2 mm 1 mps 712 mmHg 63%
    08:00 +27°C° 0.2 mm 1 mps 712 mmHg 59%
    09:00 +28°C° 0.7 mm 1 mps 712 mmHg 55%
    10:00 +29°C° 0.7 mm 2 mps 712 mmHg 50%
    11:00 +31°C° 0.7 mm 2 mps 712 mmHg 45%
    12:00 +33°C° 0.7 mm 3 mps 711 mmHg 42%
    13:00 +34°C° 0.7 mm 3 mps 711 mmHg 39%
    14:00 +35°C° 0.7 mm 3 mps 710 mmHg 36%
    15:00 +35°C° 0.6 mm 4 mps 710 mmHg 35%
    16:00 +35°C° 0.6 mm 4 mps 709 mmHg 34%
    17:00 +36°C° 0.6 mm 4 mps 709 mmHg 33%
    18:00 +34°C° 0.5 mm 4 mps 709 mmHg 36%
    19:00 +33°C° 0.5 mm 3 mps 709 mmHg 38%
    20:00 +31°C° 0.5 mm 3 mps 710 mmHg 41%
    21:00 +30°C° 0.4 mm 2 mps 710 mmHg 44%
    22:00 +29°C° 0.4 mm 2 mps 711 mmHg 47%
    23:00 +29°C° 0.4 mm 2 mps 711 mmHg 50%

    Tomorrow, 22 January, Monday

    Time Temperature Precipitation Wind Pressure Humidity
    00:00 +28°C° 0.2 mm 1 mps 711 mmHg 51%
    01:00 +28°C° 0.2 mm 1 mps 710 mmHg 53%
    02:00 +27°C° 0.2 mm 1 mps 710 mmHg 55%
    03:00 +27°C° 0 mm 1 mps 710 mmHg 56%
    04:00 +26°C° 0 mm 1 mps 710 mmHg 57%
    05:00 +26°C° 0 mm 1 mps 709 mmHg 57%
    06:00 +27°C° 0.2 mm 1 mps 710 mmHg 53%
    07:00 +28°C° 0.2 mm 1 mps 710 mmHg 48%
    08:00 +29°C° 0.2 mm 1 mps 711 mmHg 43%
    09:00 +31°C° 0.2 mm 1 mps 711 mmHg 40%
    10:00 +32°C° 0.2 mm 2 mps 710 mmHg 37%
    11:00 +34°C° 0.2 mm 2 mps 710 mmHg 35%
    12:00 +35°C° 0.1 mm 2 mps 709 mmHg 32%
    13:00 +36°C° 0.1 mm 3 mps 709 mmHg 30%
    14:00 +37°C° 0.1 mm 3 mps 708 mmHg 27%
    15:00 +38°C° 0.1 mm 4 mps 708 mmHg 27%
    16:00 +38°C° 0.1 mm 4 mps 707 mmHg 26%
    17:00 +38°C° 0.1 mm 4 mps 707 mmHg 25%
    18:00 +37°C° 0.2 mm 4 mps 707 mmHg 29%
    19:00 +35°C° 0.2 mm 3 mps 707 mmHg 32%
    20:00 +34°C° 0.2 mm 3 mps 708 mmHg 36%
    21:00 +32°C° 0.7 mm 2 mps 708 mmHg 39%
    22:00 +31°C° 0.7 mm 2 mps 709 mmHg 42%
    23:00 +31°C° 0.7 mm 2 mps 709 mmHg 45%

    Day after tomorrow, 23 January, Tuesday

    Time Temperature Precipitation Wind Pressure Humidity
    00:00 +30°C° 0.2 mm 2 mps 709 mmHg 46%
    01:00 +29°C° 0.2 mm 2 mps 709 mmHg 48%
    02:00 +29°C° 0.2 mm 2 mps 708 mmHg 49%
    03:00 +29°C° 0.1 mm 2 mps 708 mmHg 49%
    04:00 +28°C° 0.1 mm 2 mps 708 mmHg 50%
    05:00 +28°C° 0.1 mm 2 mps 708 mmHg 50%
    06:00 +29°C° 0.3 mm 1 mps 709 mmHg 47%
    07:00 +30°C° 0.3 mm 1 mps 709 mmHg 43%
    08:00 +31°C° 0.3 mm 1 mps 710 mmHg 40%
    09:00 +32°C° 0 mm 1 mps 710 mmHg 37%
    10:00 +34°C° 0 mm 1 mps 710 mmHg 34%
    11:00 +36°C° 0 mm 2 mps 710 mmHg 31%
    12:00 +37°C° 0 mm 2 mps 709 mmHg 29%
    13:00 +38°C° 0 mm 2 mps 709 mmHg 27%
    14:00 +39°C° 0 mm 3 mps 708 mmHg 25%
    15:00 +39°C° 0.1 mm 3 mps 708 mmHg 25%
    16:00 +40°C° 0.1 mm 4 mps 708 mmHg 25%
    17:00 +41°C° 0.1 mm 4 mps 707 mmHg 24%
    18:00 +38°C° 1.1 mm 4 mps 708 mmHg 30%
    19:00 +37°C° 1.1 mm 3 mps 708 mmHg 36%
    20:00 +35°C° 1.1 mm 3 mps 709 mmHg 41%
    21:00 +34°C° 1.6 mm 3 mps 709 mmHg 44%
    22:00 +33°C° 1.6 mm 3 mps 710 mmHg 47%
    23:00 +31°C° 1.6 mm 3 mps 711 mmHg 50%

    24 January, Wednesday

    Time Temperature Precipitation Wind Pressure Humidity
    00:00 +30°C° 1.1 mm 3 mps 711 mmHg 51%
    01:00 +30°C° 1.1 mm 3 mps 711 mmHg 52%
    02:00 +29°C° 1.1 mm 3 mps 711 mmHg 53%
    03:00 +28°C° 1.2 mm 2 mps 711 mmHg 56%
    04:00 +28°C° 1.2 mm 2 mps 711 mmHg 59%
    05:00 +27°C° 1.2 mm 2 mps 711 mmHg 62%
    06:00 +28°C° 0.9 mm 2 mps 712 mmHg 59%
    07:00 +28°C° 0.9 mm 2 mps 713 mmHg 56%
    08:00 +29°C° 0.9 mm 2 mps 714 mmHg 53%
    09:00 +31°C° 0.4 mm 2 mps 714 mmHg 49%
    10:00 +32°C° 0.4 mm 2 mps 714 mmHg 44%
    11:00 +34°C° 0.4 mm 2 mps 714 mmHg 40%
    12:00 +35°C° 0.5 mm 2 mps 714 mmHg 40%
    13:00 +35°C° 0.5 mm 3 mps 713 mmHg 40%
    14:00 +36°C° 0.5 mm 4 mps 712 mmHg 40%
    15:00 +35°C° 1.4 mm 4 mps 712 mmHg 41%
    16:00 +35°C° 1.4 mm 4 mps 712 mmHg 43%
    17:00 +35°C° 1.4 mm 4 mps 712 mmHg 44%
    18:00 +34°C° 1.7 mm 3 mps 712 mmHg 49%
    19:00 +31°C° 1.7 mm 3 mps 713 mmHg 55%
    20:00 +30°C° 1.7 mm 2 mps 713 mmHg 60%
    21:00 +29°C° 1.6 mm 2 mps 714 mmHg 63%
    22:00 +29°C° 1.6 mm 2 mps 714 mmHg 67%
    23:00 +28°C° 1.6 mm 2 mps 714 mmHg 71%

    25 January, Thursday

    Time Temperature Precipitation Wind Pressure Humidity
    00:00 +27°C° 0.9 mm 2 mps 714 mmHg 72%
    01:00 +27°C° 0.9 mm 2 mps 714 mmHg 74%
    02:00 +26°C° 0.9 mm 2 mps 713 mmHg 75%
    03:00 +26°C° 0.6 mm 2 mps 713 mmHg 78%
    04:00 +26°C° 0.6 mm 1 mps 713 mmHg 80%
    05:00 +25°C° 0.6 mm 1 mps 713 mmHg 83%
    06:00 +25°C° 0.2 mm 1 mps 713 mmHg 81%
    07:00 +26°C° 0.2 mm 2 mps 714 mmHg 79%
    08:00 +26°C° 0.2 mm 2 mps 714 mmHg 77%
    09:00 +27°C° 0.1 mm 2 mps 713 mmHg 72%
    10:00 +29°C° 0.1 mm 3 mps 713 mmHg 67%
    11:00 +30°C° 0.1 mm 3 mps 713 mmHg 62%
    12:00 +31°C° 0.1 mm 3 mps 712 mmHg 58%
    13:00 +33°C° 0.1 mm 4 mps 711 mmHg 54%
    14:00 +34°C° 0.1 mm 4 mps 710 mmHg 50%
    15:00 +34°C° 0.1 mm 4 mps 710 mmHg 50%
    16:00 +34°C° 0.1 mm 5 mps 709 mmHg 51%
    17:00 +34°C° 0.1 mm 5 mps 709 mmHg 51%
    18:00 +33°C° 0.1 mm 5 mps 709 mmHg 55%
    19:00 +32°C° 0.1 mm 4 mps 710 mmHg 59%
    20:00 +30°C° 0.1 mm 4 mps 710 mmHg 63%
    21:00 +30°C° 0.7 mm 4 mps 711 mmHg 66%
    22:00 +29°C° 0.7 mm 3 mps 711 mmHg 69%
    23:00 +28°C° 0.7 mm 3 mps 711 mmHg 73%

    26 January, Friday

    Time Temperature Precipitation Wind Pressure Humidity
    00:00 +28°C° 0.5 mm 3 mps 711 mmHg 73%
    01:00 +28°C° 0.5 mm 3 mps 710 mmHg 74%
    02:00 +27°C° 0.5 mm 3 mps 710 mmHg 75%
    03:00 +27°C° 0.1 mm 3 mps 710 mmHg 75%
    04:00 +26°C° 0.1 mm 2 mps 710 mmHg 76%
    05:00 +26°C° 0.1 mm 2 mps 710 mmHg 76%
    06:00 +26°C° 0 mm 2 mps 710 mmHg 74%
    07:00 +27°C° 0 mm 2 mps 710 mmHg 72%
    08:00 +27°C° 0 mm 2 mps 710 mmHg 70%
    09:00 +29°C° 0 mm 2 mps 710 mmHg 65%
    10:00 +30°C° 0 mm 2 mps 710 mmHg 59%
    11:00 +32°C° 0 mm 2 mps 710 mmHg 53%
    12:00 +34°C° 0.2 mm 3 mps 709 mmHg 50%
    13:00 +35°C° 0.2 mm 3 mps 708 mmHg 46%
    14:00 +36°C° 0.2 mm 4 mps 708 mmHg 43%
    15:00 +36°C° 0.2 mm 4 mps 708 mmHg 43%
    16:00 +36°C° 0.2 mm 5 mps 707 mmHg 44%
    17:00 +36°C° 0.2 mm 5 mps 707 mmHg 45%
    18:00 +35°C° 0.2 mm 5 mps 708 mmHg 49%
    19:00 +34°C° 0.2 mm 4 mps 708 mmHg 54%
    20:00 +33°C° 0.2 mm 3 mps 709 mmHg 58%
    21:00 +31°C° 0.3 mm 3 mps 709 mmHg 61%
    22:00 +30°C° 0.3 mm 2 mps 709 mmHg 65%
    23:00 +30°C° 0.3 mm 1 mps 710 mmHg 68%
    Show more